This demonstration page uses our WeatherBlox Daily Observations layout. Learn more.

Left ArrowRight Arrow

44.8408, -93.29828

Hourly Observations for August 20, 2022

Temp ( °F °C ) Dew Point ( °F °C ) Humidity (%) Winds ( mph kmh ) Pressure ( in mb ) Visibility ( mi km ) Precip ( " mm )
12:53 am 00:53 Mostly Cloudy 66 18.9 61 16.1 84 84 ENE 3 6 29.85 1011 10 16 0.00 0.00
1:53 am 01:53 Mostly Cloudy 65 18.3 62 16.7 90 90 NNE 9 15 29.87 1011 10 16 0.00 0.00
2:53 am 02:53 Mostly Cloudy 64 17.8 62 16.7 93 93 NNE 6 9 29.87 1012 10 16 0.00 0.00
3:53 am 03:53 Mostly Cloudy 65 18.3 63 17.2 93 93 ENE 6 9 29.87 1012 10 16 0.00 0.00
4:46 am 04:46 Mostly Cloudy 65 18.3 63 17.2 93 93 NE 3 6 29.87 1012 10 16 0.00 0.00
4:53 am 04:53 Mostly Cloudy 65 18.3 63 17.2 93 93 N 6 9 29.88 1012 10 16 0.00 0.00
5:53 am 05:53 Cloudy 65 18.3 63 17.2 93 93 VRB 6 9 29.90 1013 10 16 0.00 0.00
6:53 am 06:53 Cloudy 65 18.3 63 17.2 93 93 N 7 11 29.92 1013 7 11 0.00 0.00
7:53 am 07:53 Cloudy 65 18.3 63 17.2 93 93 NNE 13 20 29.94 1014 9 14 0.00 0.00
8:16 am 08:16 Mostly Cloudy 66 18.9 63 17.2 90 90 NNE 10 17 29.93 1014 10 16 0.00 0.00
8:25 am 08:25 Mostly Cloudy 66 18.9 62 16.7 87 87 NNE 9 15 29.93 1014 10 16 0.00 0.00
8:33 am 08:33 Mostly Cloudy 66 18.9 62 16.7 87 87 NNE 10 17 29.94 1014 10 16 0.00 0.00
8:53 am 08:53 Mostly Cloudy 67 19.4 62 16.7 84 84 NNE 10 17 29.95 1014 10 16 0.00 0.00
9:29 am 09:29 Mostly Cloudy 70 21.1 62 16.7 76 76 NNE 10 17 29.93 1014 10 16 0.00 0.00
9:53 am 09:53 Mostly Cloudy 71 21.7 62 16.7 73 73 N 13 20 29.96 1014 10 16 0.00 0.00
10:53 am 10:53 Mostly Cloudy 71 21.7 62 16.7 73 73 N 13 20 29.98 1015 10 16 0.00 0.00
11:20 am 11:20 Mostly Cloudy 72 22.2 62 16.7 71 71 N 13 20 29.96 1015 10 16 0.00 0.00
11:53 am 11:53 Mostly Cloudy 73 22.8 63 17.2 71 71 N 12 19 29.98 1015 10 16 0.00 0.00
12:09 pm 12:09 Mostly Cloudy 72 22.2 62 16.7 71 71 NNE 12 19 29.97 1015 10 16 0.00 0.00
12:53 pm 12:53 Cloudy 71 21.7 62 16.7 73 73 N 10 17 29.99 1016 10 16 0.00 0.00
1:53 pm 13:53 Mostly Cloudy 72 22.2 63 17.2 73 73 NNE 12 19 29.99 1016 10 16 0.00 0.00
2:53 pm 14:53 Mostly Cloudy 73 22.8 62 16.7 68 68 N 10 17 29.98 1015 10 16 0.00 0.00
3:14 pm 15:14 Mostly Cloudy 74 23.3 63 17.2 69 69 N 15 24 29.96 1015 10 16 0.00 0.00
3:53 pm 15:53 Mostly Cloudy 75 23.9 63 17.2 66 66 NNW 13 20 29.98 1015 10 16 0.00 0.00
4:53 pm 16:53 Mostly Cloudy 75 23.9 62 16.7 64 64 NNE 10 17 29.98 1015 10 16 0.00 0.00
5:53 pm 17:53 Mostly Cloudy 75 23.9 63 17.2 66 66 N 10 17 29.99 1016 10 16 0.00 0.00
6:53 pm 18:53 Mostly Cloudy 75 23.9 62 16.7 64 64 N 14 22 29.99 1016 10 16 0.00 0.00
7:53 pm 19:53 Partly Cloudy 72 22.2 63 17.2 73 73 N 10 17 30.00 1016 10 16 0.00 0.00
8:53 pm 20:53 Mostly Clear 70 21.1 62 16.7 76 76 N 8 13 30.01 1016 10 16 0.00 0.00
9:53 pm 21:53 Mostly Clear 68 20 62 16.7 81 81 N 6 9 30.03 1017 10 16 0.00 0.00
10:53 pm 22:53 Clear 67 19.4 62 16.7 84 84 N 7 11 30.04 1017 10 16 0.00 0.00
11:53 pm 23:53 Clear 67 19.4 62 16.7 84 84 N 7 11 30.05 1018 10 16 0.00 0.00

Powered by AerisWeather